Total_Precipitation_Accumulation
0.03 0.05 0.05 0.06 0.05 0.02 0.00 0.01 0.00 0.01 0.00 0.01 0.00 0.02 0.04 0.03 0.07 0.13 0.11 0.13 0.13 0.12 0.09 0.09 0.07 0.04 0.03 0.01 0.00 0.02 0.03 0.04 0.04 0.01 0.00 0.00 0.01 0.01 0.01 0.01 0.00 0.00 0.00
0.05 0.05 0.04 0.04 0.04 0.01 0.00 0.01 0.01 0.01 0.01 0.01 0.01 0.00 0.00 0.01 0.01 0.03 0.08 0.07 0.09 0.07 0.05 0.05 0.03 0.01 0.00 0.01 0.01 0.02 0.02 0.02 0.04 0.03 0.00 0.00 0.00 0.00 0.00 0.01 0.00 0.00 0.00
0.09 0.07 0.03 0.06 0.06 0.04 0.02 0.02 0.01 0.01 0.01 0.02 0.03 0.01 0.01 0.01 0.04 0.03 0.03 0.04 0.04 0.07 0.08 0.07 0.06 0.04 0.02 0.01 0.01 0.00 0.00 0.01 0.01 0.00 0.00 0.01 0.01 0.01 0.02 0.01 0.00 0.00 0.00
0.23 0.15 0.12 0.13 0.11 0.06 0.03 0.03 0.02 0.02 0.02 0.02 0.03 0.03 0.02 0.01 0.02 0.05 0.05 0.04 0.02 0.02 0.02 0.02 0.07 0.09 0.05 0.04 0.05 0.03 0.04 0.06 0.06 0.05 0.01 0.01 0.03 0.01 0.06 0.02 0.02 0.01 0.01
0.37 0.34 0.25 0.16 0.23 0.13 0.09 0.05 0.04 0.03 0.04 0.03 0.04 0.05 0.04 0.03 0.03 0.04 0.04 0.05 0.04 0.03 0.04 0.05 0.04 0.02 0.04 0.01 0.02 0.05 0.10 0.12 0.11 0.11 0.07 0.04 0.04 0.04 0.06 0.07 0.11 0.08 0.13
0.38 0.35 0.35 0.25 0.17 0.14 0.12 0.07 0.06 0.03 0.03 0.04 0.04 0.03 0.03 0.02 0.06 0.03 0.02 0.02 0.03 0.06 0.06 0.06 0.05 0.04 0.01 0.00 0.00 0.00 0.02 0.04 0.05 0.06 0.07 0.07 0.03 0.06 0.06 0.09 0.10 0.10 0.08
0.37 0.44 0.41 0.31 0.27 0.19 0.15 0.10 0.12 0.06 0.06 0.08 0.09 0.09 0.09 0.08 0.12 0.04 0.04 0.02 0.06 0.09 0.07 0.08 0.11 0.07 0.07 0.01 0.02 0.03 0.02 0.07 0.10 0.11 0.05 0.06 0.16 0.29 0.31 0.29 0.31 0.37 0.33
0.63 0.74 0.72 0.54 0.39 0.29 0.30 0.22 0.16 0.14 0.09 0.12 0.14 0.11 0.11 0.14 0.14 0.08 0.10 0.05 0.09 0.12 0.13 0.11 0.09 0.08 0.14 0.13 0.05 0.08 0.12 0.20 0.31 0.45 0.64 0.76 0.80 0.60 0.47 0.45 0.40 0.37 0.36
0.70 0.75 0.76 0.82 0.82 0.71 0.53 0.42 0.35 0.33 0.22 0.12 0.11 0.12 0.09 0.07 0.12 0.09 0.08 0.05 0.10 0.14 0.15 0.19 0.17 0.09 0.24 0.15 0.08 0.11 0.17 0.28 0.47 0.40 0.36 0.32 0.28 0.24 0.22 0.26 0.37 0.46 0.48
0.53 0.70 0.69 0.66 0.75 0.82 0.90 0.83 0.65 0.60 0.59 0.48 0.36 0.28 0.24 0.11 0.16 0.15 0.16 0.14 0.19 0.21 0.21 0.23 0.33 0.27 0.34 0.34 0.34 0.36 0.38 0.43 0.42 0.38 0.34 0.27 0.18 0.12 0.15 0.11 0.13 0.22 0.33
0.49 0.47 0.57 0.65 0.61 0.64 0.70 0.70 0.78 0.72 0.62 0.61 0.61 0.56 0.48 0.38 0.28 0.22 0.25 0.24 0.27 0.27 0.27 0.25 0.25 0.27 0.22 0.19 0.18 0.17 0.16 0.15 0.17 0.11 0.06 0.07 0.08 0.07 0.06 0.05 0.06 0.09 0.12
0.29 0.31 0.28 0.31 0.46 0.49 0.50 0.47 0.43 0.47 0.51 0.48 0.44 0.42 0.37 0.36 0.36 0.29 0.16 0.13 0.14 0.13 0.15 0.14 0.09 0.07 0.08 0.07 0.03 0.01 0.01 0.01 0.00 0.01 0.02 0.03 0.03 0.04 0.05 0.03 0.02 0.02 0.02
0.04 0.09 0.14 0.15 0.15 0.20 0.28 0.31 0.29 0.28 0.28 0.28 0.27 0.27 0.25 0.20 0.16 0.15 0.14 0.08 0.03 0.03 0.04 0.04 0.02 0.01 0.00 0.00 0.00 0.00 0.00 0.00 0.00 0.00 0.01 0.02 0.03 0.03 0.02 0.01 0.01 0.00 0.00
0.01 0.01 0.02 0.03 0.05 0.05 0.06 0.10 0.15 0.18 0.20 0.22 0.23 0.21 0.17 0.12 0.08 0.06 0.04 0.03 0.02 0.02 0.01 0.00 0.00 0.00 0.00 0.00 0.00 0.00 0.01 0.01 0.01 0.01 0.01 0.01 0.01 0.00 0.00 0.00 0.00 0.00 0.00
0.00 0.00 0.00 0.00 0.00 0.01 0.03 0.04 0.04 0.07 0.06 0.09 0.12 0.14 0.15 0.16 0.17 0.11 0.07 0.06 0.05 0.03 0.03 0.02 0.01 0.01 0.01 0.01 0.01 0.00 0.00 0.00 0.00 0.00 0.00 0.00 0.00 0.00 0.00 0.00 0.00 0.00 0.00
0.00 0.00 0.01 0.01 0.00 0.00 0.00 0.01 0.01 0.02 0.01 0.01 0.01 0.02 0.03 0.03 0.02 0.01 0.01 0.01 0.01 0.01 0.01 0.01 0.01 0.01 0.01 0.00 0.01 0.00 0.00 0.00 0.00 0.00 0.00 0.00 0.00 0.00 0.00 0.00 0.00 0.00 0.00
0.01 0.01 0.00 0.00 0.00 0.01 0.02 0.01 0.01 0.02 0.01 0.01 0.01 0.01 0.01 0.01 0.00 0.00 0.00 0.00 0.00 0.00 0.00 0.01 0.01 0.00 0.00 0.00 0.00 0.00 0.00 0.00 0.00 0.00 0.00 0.00 0.00 0.00 0.00 0.00 0.00 0.00 0.00
0.01 0.01 0.01 0.01 0.01 0.01 0.01 0.02 0.02 0.02 0.02 0.02 0.01 0.01 0.00 0.00 0.00 0.00 0.00 0.00 0.00 0.00 0.00 0.00 0.00 0.00 0.00 0.00 0.00 0.00 0.00 0.00 0.00 0.00 0.00 0.00 0.00 0.00 0.00 0.00 0.00 0.00 0.00
0.00 0.02 0.02 0.01 0.01 0.01 0.01 0.01 0.01 0.01 0.01 0.02 0.02 0.01 0.01 0.00 0.00 0.00 0.00 0.00 0.00 0.00 0.00 0.00 0.00 0.00 0.00 0.00 0.00 0.00 0.00 0.00 0.00 0.00 0.00 0.00 0.00 0.00 0.00 0.00 0.00 0.00 0.00
0.01 0.00 0.01 0.01 0.01 0.01 0.01 0.01 0.01 0.01 0.00 0.00 0.00 0.00 0.00 0.00 0.00 0.00 0.00 0.00 0.00 0.00 0.00 0.00 0.00 0.00 0.00 0.00 0.00 0.00 0.00 0.00 0.00 0.00 0.00 0.00 0.00 0.00 0.00 0.00 0.00 0.00 0.00
0.01 0.00 0.00 0.00 0.00 0.00 0.00 0.00 0.00 0.00 0.00 0.00 0.00 0.00 0.00 0.00 0.00 0.00 0.00 0.00 0.00 0.00 0.00 0.00 0.00 0.00 0.00 0.00 0.00 0.00 0.00 0.00 0.00 0.00 0.00 0.00 0.00 0.00 0.00 0.00 0.00 0.00 0.00
0.00 0.00 0.00 0.00 0.00 0.00 0.00 0.00 0.00 0.00 0.00 0.00 0.00 0.00 0.00 0.00 0.00 0.00 0.00 0.00 0.00 0.00 0.00 0.00 0.00 0.00 0.00 0.00 0.00 0.00 0.00 0.00 0.00 0.00 0.00 0.00 0.00 0.00 0.00 0.00 0.00 0.00 0.00
0.00 0.00 0.00 0.00 0.00 0.00 0.00 0.00 0.00 0.00 0.00 0.00 0.00 0.00 0.00 0.00 0.00 0.00 0.01 0.01 0.00 0.00 0.00 0.00 0.00 0.00 0.00 0.01 0.00 0.00 0.00 0.00 0.00 0.00 0.00 0.00 0.00 0.00 0.00 0.00 0.00 0.00 0.00
0.00 0.00 0.00 0.00 0.00 0.00 0.01 0.01 0.00 0.00 0.00 0.00 0.00 0.00 0.00 0.01 0.01 0.01 0.00 0.00 0.01 0.01 0.00 0.00 0.00 0.00 0.00 0.00 0.00 0.00 0.00 0.00 0.00 0.00 0.00 0.00 0.00 0.00 0.00 0.00 0.00 0.00 0.00
0.00 0.00 0.00 0.00 0.00 0.01 0.01 0.01 0.01 0.01 0.01 0.01 0.01 0.01 0.01 0.01 0.01 0.01 0.01 0.00 0.00 0.00 0.01 0.00 0.00 0.00 0.00 0.00 0.00 0.00 0.00 0.00 0.00 0.00 0.00 0.00 0.00 0.00 0.00 0.00 0.00 0.00 0.00
0.00 0.00 0.00 0.00 0.00 0.00 0.01 0.01 0.01 0.01 0.01 0.01 0.01 0.01 0.01 0.00 0.00 0.00 0.00 0.00 0.00 0.00 0.00 0.00 0.00 0.00 0.00 0.01 0.00 0.00 0.00 0.00 0.00 0.00 0.00 0.00 0.01 0.01 0.01 0.00 0.00 0.00 0.00